Location: Hamilton
(37.7830°S, 175.2830°E)
Time: 06:26:26
(UTC+12:00)

Daily predictions for brighter satellites

Satellite Brightness Start Highest point End
(mag) Time Altitude Azimuth Time Altitude Azimuth Time Altitude Azimuth
USA 267 4.3 17:59:51 10° NNE 18:06:12 51° NW 18:12:36 10° SW
Okean O Rocket 1.9 18:05:55 10° SSE 18:10:11 47° E 18:14:23 10° N
Cosmos 2082 Rocket 2.6 18:04:38 10° SSW 18:10:24 74° WNW 18:16:06 10° NNE
CZ-4B R/B 3.3 18:07:07 10° SSE 18:12:28 54° E 18:17:40 10° N
Cosmos 1452 Rocket 3.9 18:09:03 10° N 18:14:01 44° ENE 18:19:04 10° SSE
CENTAUR R/B 2.9 18:10:11 10° SW 18:15:36 55° WNW 18:20:38 10° NNE
MOS 1 Rocket 4.0 18:14:10 10° NE 18:18:15 31° ESE 18:22:13 10° S
Cosmos 1862 4.3 18:15:19 10° SSE 18:18:48 27° ESE 18:22:17 10° NE
PAYLOAD B 4.4 18:17:11 10° SSE 18:22:54 86° WSW 18:28:29 10° NNW
SEDSat Delta rocket 4.5 18:20:15 10° NW 18:23:29 23° NNE 18:26:45 10° ENE
Cosmos 1633 3.0 18:21:41 10° SSW 18:25:19 67° W 18:28:54 10° N
GPS 2-04 Rocket1 3.9 18:24:34 10° NW 18:28:02 29° NNE 18:31:00 12° ENE
Cosmos 1842 Rocket 4.5 18:25:39 10° NNW 18:30:05 55° W 18:34:34 10° S
Envisat 3.0 18:25:21 10° SSE 18:30:32 79° ENE 18:35:38 10° N
CORIOLIS 4.3 18:25:28 10° SSE 18:30:47 52° E 18:36:04 10° N
Cosmos 1441 Rocket 3.6 18:27:11 10° S 18:31:01 42° ESE 18:34:46 10° NNE
BREEZE-M DEB (TANK) 2.9 18:32:08 10° WSW 18:34:14 40° NW 18:37:50 10° NE
Lacrosse 5 rocket 3.8 18:35:31 10° SW 18:36:39 11° SSW 18:37:47 10° S
AQUARIUS 4.1 18:32:29 10° SSE 18:37:02 69° E 18:41:33 10° N
BREEZE M DEB (TANK) 3.2 18:35:56 10° SW 18:37:04 15° S 18:38:00 13° SE
Cosmos 676 Rocket 4.0 18:33:47 10° SSW 18:39:05 86° ESE 18:44:23 10° NNE
Cosmos 1821 Rocket 4.4 18:34:39 10° S 18:40:18 36° ESE 18:45:53 10° NE
Cosmos 1420 Rocket 4.4 18:35:25 10° NNW 18:40:39 66° WSW 18:45:54 10° SSE
Cosmos 332 Rocket 4.0 18:35:56 10° NNW 18:40:52 82° WSW 18:45:51 10° SSE
Cosmos 1606 3.8 18:37:59 10° NE 18:40:58 22° E 18:43:19 13° SE
Lacrosse 4 Rocket 2.8 18:40:09 10° S 18:43:47 23° SE 18:45:24 19° E
Cosmos 1151 Rocket 4.3 18:42:15 10° NE 18:45:29 20° E 18:46:29 19° ESE
Cosmos 2366 rocket 4.2 18:40:14 10° S 18:46:40 79° W 18:53:00 10° N
CZ-2C R/B 3.1 18:42:03 10° NE 18:47:10 41° ESE 18:52:25 10° S
Sich 1 3.5 18:44:27 10° S 18:48:36 38° ESE 18:52:43 10° NNE
Aureole 1 Rocket 3.5 18:48:37 10° SSW 18:52:19 60° WNW 18:57:02 10° N
Milstar 3 Cent rocket 3.5 18:49:15 10° WNW 18:55:04 32° N 18:58:40 13° NE
Cosmos 1743 Rocket 4.5 18:52:40 10° SSW 18:56:59 52° W 19:01:16 10° N
Cosmos 2369 Rocket 2.2 18:51:16 10° NNW 18:56:59 82° ENE 19:02:47 10° SSE
IRS-1C Rocket 4.2 18:55:27 10° SSE 19:00:41 53° E 19:05:51 10° N
Cosmos 1943 Rocket 2.8 18:58:14 10° NW 19:03:39 57° WSW 19:09:08 10° SSE
CZ-4 R/B 3.3 19:07:53 14° NNE 19:07:53 14° NNE 19:08:41 10° NNE
Cosmos 1110 Rocket 4.0 19:04:23 10° N 19:09:31 57° ENE 19:14:23 11° SSE
FengYun 1-2 T 4.2 19:06:40 10° SSE 19:12:21 84° ENE 19:17:54 10° NNW
Cosmos 2263 4.1 19:08:43 10° NNW 19:14:25 81° ENE 19:20:09 10° SSE
SL-27 R/B 3.6 19:11:05 10° S 19:13:19 29° SSE 19:13:19 29° SSE
Cosmos 1741 Rocket 3.9 19:09:30 10° SSW 19:14:46 64° ESE 19:19:57 10° NNE
CZ-4 R/B 4.4 19:18:43 23° SSE 19:21:14 61° E 19:25:22 10° N
Abrixas rocket 4.5 19:20:29 10° N 19:21:00 13° N 19:21:00 13° N
CZ-4C R/B 3.3 19:18:16 10° NW 19:26:33 69° SW 19:33:45 10° SSE
Cosmos 1666 Rocket 3.4 19:23:09 10° S 19:27:35 69° E 19:30:12 24° NNE
IRIDIUM 106 4.3 19:22:41 10° S 19:27:54 57° E 19:33:03 10° NNE
H-2A R/B 3.8 19:24:43 10° WNW 19:30:13 64° NNE 19:41:40 29° E
DELTA 2 R/B (1) 3.6 19:25:32 10° W 19:31:08 74° S 19:32:42 48° ESE
ATLAS 3B R/B 3.6 19:28:49 10° SW 19:35:38 48° WNW 19:42:08 10° N
Cosmos 1939 Rocket 2.8 19:35:32 34° S 19:37:12 78° WSW 19:41:06 10° NNW
Okean-O 2.5 19:39:16 33° SSE 19:41:17 90° WSW 19:45:44 10° NNW
Cosmos 1933 3.7 19:44:01 10° NNW 19:47:31 60° NW 19:47:31 60° NW
Helios 1A Rocket 4.3 19:47:47 10° S 19:51:40 38° WSW 19:55:28 10° NW
CZ-2C R/B 3.7 19:53:38 75° WSW 19:53:38 75° WSW 19:58:02 10° SSW
Cosmos 1331 Rocket 4.4 19:48:54 10° NNW 19:54:00 60° WSW 19:57:18 22° S
Cosmos 1633 Rocket 3.3 19:50:18 10° SSW 19:54:34 69° WSW 19:54:34 69° WSW
ASTRO E2 4.5 19:53:20 10° WNW 19:55:39 26° NW 19:55:39 26° NW
Cosmos 1833 4.2 19:52:55 10° SSW 19:58:09 68° SSE 19:58:09 68° SSE
Cosmos 1934 Rocket 3.9 19:53:49 10° S 20:00:08 86° W 20:06:28 10° N
Cosmos 1328 Rocket 4.2 19:57:58 10° NNW 20:02:20 55° W 20:02:29 55° WSW
Meteor 1-25 Rocket 4.2 19:59:38 10° S 20:04:46 73° S 20:04:46 73° S
Cosmos 1339 Rocket 4.3 20:01:47 10° N 20:07:55 90° NW 20:14:06 10° S
Lacrosse 4 Rocket 3.2 20:18:26 10° SW 20:21:48 32° W 20:21:48 32° W
BREEZE-M DEB (TANK) 4.3 20:23:09 10° NW 20:39:25 65° NNW 20:39:25 65° NNW
